Location: Unspecified
(0.0000°N, 0.0000°E)
Time: 09:03:36
(UTC+00:00)

N. Korean satellite - Pass Details

Date: 30 May 2020
Orbit: 454 x 505 km, 97.2° (Epoch: 06 July)

Event Time Altitude Azimuth Distance (km) Brightness Sun altitude
Rises 05:02:26 0° 19° (NNE) 2,580 10.9 -12.8°
Reaches altitude 10° 05:04:33 10° 24° (NNE) 1,694 10.0 -12.3°
Maximum altitude 05:08:06 51° 101° (E) 630 7.5 -11.5°
Drops below altitude 10° 05:11:37 10° 177° (S) 1,678 9.1 -10.7°
Sets 05:13:43 0° 182° (S) 2,553 10.0 -10.2°
